Weather History for KEZF - January, 2013

Change the Weather History Date:

Tuesday, January 15, 2013

  Actual Average (KNYG) Record (KNYG)
Temperature  
Mean Temperature 40 °F -  
Max Temperature 43 °F 39 °F 68 °F (2007)
Min Temperature 38 °F 24 °F 15 °F (2009)
Degree Days  
Heating Degree Days 24    
Moisture  
Dew Point 41 °F    
Average Humidity 98    
Maximum Humidity 100    
Minimum Humidity 85    
Precipitation  
Precipitation 0.69 in - - ()
Sea Level Pressure  
Sea Level Pressure 30.25 in    
Wind  
Wind Speed 5 mph (NNE)    
Max Wind Speed 9 mph    
Max Gust Speed -    
Visibility 6 miles    
Events Rain    
Averages and records for this station are not official NWS values.
T = Trace of Precipitation, MM = Missing Value Source: NWS Daily Summary

Daily Weather History Graph

Daily Weather History Graph

Search for Another Location

Airport or City:

Trip Planner

Search our weather history database for the weather conditions in past years. The results will help you decide how hot, cold, wet, or windy it might be!

Date:

Astronomy

Jan. 15, 2013 Rise Set
Actual Time 7:25 AM EST 5:13 PM EST
Civil Twilight 6:56 AM EST 5:42 PM EST
Nautical Twilight 6:23 AM EST 6:15 PM EST
Astronomical Twilight 5:52 AM EST 6:46 PM EST
Moon 9:34 AM EST (1/15) 9:56 PM EST (1/15)
Length of Visible Light 10h 46m
Length of Day
9h 48m
Waxing Crescent, 19% of the Moon is Illuminated
Jan 15
Waxing Crescent
Jan 18
First Quarter
Jan 26
Full
Feb 3
Last Quarter
Feb 10
New

Hourly Weather History & Observations

Time (EST) Temp. Windchill Dew Point Humidity Pressure Visibility Wind Dir Wind Speed Gust Speed Precip Events Conditions
12:15 AM 42.8 °F 37.5 °F 38.7 °F 85% 30.30 in 10.0 mi North 9.2 mph - 0.01 in Rain Light Rain
12:35 AM 42.4 °F 38.1 °F 39.2 °F 88% 30.27 in 10.0 mi North 6.9 mph - 0.02 in Rain Rain
12:55 AM 42.3 °F 40.5 °F 39.2 °F 89% 30.28 in 10.0 mi North 3.5 mph - 0.02 in Rain Rain
1:15 AM 42.1 °F 40.2 °F 39.2 °F 90% 30.28 in 7.0 mi NNE 3.5 mph - 0.01 in Rain Rain
1:35 AM 41.5 °F 39.6 °F 40.3 °F 95% 30.26 in 5.0 mi ENE 3.5 mph - 0.05 in Rain Light Rain
1:55 AM 41.5 °F - 40.6 °F 97% 30.25 in 10.0 mi Calm Calm - 0.07 in Rain Light Rain
2:15 AM 41.7 °F - 41.0 °F 97% 30.26 in 5.0 mi Calm Calm - 0.01 in Rain Rain
2:35 AM 41.5 °F - 41.0 °F 98% 30.25 in 7.0 mi Calm Calm - 0.02 in Rain Light Rain
2:55 AM 41.5 °F - 41.2 °F 99% 30.23 in 7.0 mi Calm Calm - 0.04 in Rain Light Rain
3:15 AM 41.5 °F 39.6 °F 41.5 °F 100% 30.24 in 10.0 mi NNW 3.5 mph - 0.02 in Rain Rain
3:35 AM 41.5 °F 39.6 °F 41.5 °F 100% 30.26 in 7.0 mi NW 3.5 mph - 0.04 in Rain Rain
3:55 AM 41.5 °F 39.6 °F 41.5 °F 100% 30.25 in 7.0 mi NW 3.5 mph - 0.06 in Rain Rain
4:15 AM 41.5 °F 37.8 °F 41.5 °F 100% 30.25 in 7.0 mi NW 5.8 mph - 0.02 in Rain Rain
4:35 AM 41.5 °F 37.1 °F 41.5 °F 100% 30.25 in 10.0 mi NNW 6.9 mph - 0.04 in Rain Light Rain
4:55 AM 41.4 °F 38.4 °F 41.4 °F 100% 30.24 in 10.0 mi North 4.6 mph - 0.05 in Rain Light Rain
5:35 AM 41.4 °F 37.6 °F 41.2 °F 99% 30.25 in 10.0 mi North 5.8 mph - N/A   Overcast
5:55 AM 41.4 °F 36.8 °F 41.0 °F 99% 30.25 in 10.0 mi NNW 6.9 mph - N/A Rain Rain
6:15 AM 41.4 °F 38.4 °F 41.0 °F 99% 30.23 in 10.0 mi North 4.6 mph - N/A   Overcast
6:35 AM 41.4 °F 38.4 °F 40.8 °F 98% 30.25 in 10.0 mi NNW 4.6 mph - N/A   Overcast
6:55 AM 41.4 °F 39.4 °F 40.6 °F 97% 30.25 in 10.0 mi NNE 3.5 mph - N/A   Overcast
7:15 AM 41.4 °F 38.4 °F 40.6 °F 97% 30.28 in 10.0 mi NNW 4.6 mph - N/A   Overcast
7:35 AM 41.7 °F 38.8 °F 40.5 °F 95% 30.28 in 10.0 mi North 4.6 mph - N/A   Overcast
7:55 AM 41.5 °F 38.6 °F 41.0 °F 98% 30.28 in 3.0 mi NNE 4.6 mph - N/A   Light Drizzle
8:15 AM 41.4 °F 39.4 °F 41.4 °F 100% 30.31 in 2.5 mi North 3.5 mph - 0.01 in   Drizzle
8:35 AM 41.5 °F 38.6 °F 41.5 °F 100% 30.31 in 3.0 mi NNW 4.6 mph - 0.01 in   Light Drizzle
8:55 AM 41.9 °F 38.2 °F 41.9 °F 100% 30.32 in 4.0 mi North 5.8 mph - 0.01 in   Overcast
9:15 AM 41.9 °F 38.2 °F 41.9 °F 100% 30.30 in 2.5 mi NNE 5.8 mph - N/A   Light Drizzle
9:55 AM 42.3 °F 38.6 °F 42.3 °F 100% 30.32 in 4.0 mi North 5.8 mph - 0.01 in Rain Rain
10:15 AM 42.3 °F 37.3 °F 42.3 °F 100% 30.33 in 4.0 mi North 8.1 mph - 0.01 in Rain Rain
10:35 AM 42.3 °F 37.9 °F 42.1 °F 99% 30.33 in 3.0 mi North 6.9 mph - 0.01 in Rain Light Rain
10:55 AM 42.3 °F 37.9 °F 42.1 °F 99% 30.33 in 5.0 mi North 6.9 mph - 0.02 in Rain Rain
11:15 AM 42.3 °F 39.4 °F 42.1 °F 99% 30.30 in 5.0 mi North 4.6 mph - N/A Rain Light Rain
11:35 AM 42.6 °F 39.0 °F 42.3 °F 99% 30.29 in 5.0 mi North 5.8 mph - 0.01 in Rain Light Rain
11:55 AM 42.8 °F 38.6 °F 42.4 °F 99% 30.30 in 5.0 mi North 6.9 mph - 0.02 in Rain Light Rain
12:15 PM 42.8 °F 39.3 °F 42.3 °F 98% 30.29 in 5.0 mi North 5.8 mph - 0.01 in Rain Rain
12:35 PM 42.8 °F - 42.3 °F 98% 30.27 in 7.0 mi Calm Calm - 0.02 in Rain Light Rain
12:55 PM 42.8 °F 40.1 °F 42.6 °F 99% 30.25 in 5.0 mi NE 4.6 mph - 0.03 in Rain Light Rain
1:15 PM 42.8 °F 37.5 °F 42.8 °F 100% 30.27 in 5.0 mi North 9.2 mph - 0.01 in Rain Light Rain
1:35 PM 42.8 °F 39.3 °F 42.8 °F 100% 30.25 in 7.0 mi NNE 5.8 mph - 0.01 in Rain Light Rain
1:55 PM 43.0 °F 39.5 °F 42.6 °F 99% 30.22 in 10.0 mi NE 5.8 mph - 0.01 in Rain Rain
2:35 PM 43.2 °F - 42.6 °F 98% 30.23 in 7.0 mi Calm Calm - 0.02 in Rain Light Rain
2:55 PM 43.2 °F 40.5 °F 42.6 °F 98% 30.24 in 7.0 mi NNE 4.6 mph - 0.02 in Rain Light Rain
3:15 PM 43.0 °F 41.3 °F 42.8 °F 99% 30.26 in 5.0 mi North 3.5 mph - 0.01 in Rain Light Rain
3:35 PM 43.0 °F 41.3 °F 42.8 °F 99% 30.25 in 5.0 mi NNE 3.5 mph - 0.02 in Rain Light Rain
3:55 PM 43.0 °F 40.3 °F 42.8 °F 99% 30.25 in 7.0 mi North 4.6 mph - 0.02 in Rain Light Rain
4:15 PM 42.8 °F 40.1 °F 42.8 °F 100% 30.24 in 5.0 mi NNE 4.6 mph - 0.01 in Rain Rain
4:35 PM 42.8 °F 40.1 °F 42.8 °F 100% 30.25 in 7.0 mi North 4.6 mph - 0.02 in Rain Rain
4:55 PM 42.8 °F 40.1 °F 42.4 °F 99% 30.24 in 7.0 mi ENE 4.6 mph - 0.03 in Rain Rain
5:15 PM 42.8 °F 40.1 °F 42.4 °F 99% 30.23 in 5.0 mi East 4.6 mph - 0.01 in Rain Light Rain
5:35 PM 42.6 °F 39.9 °F 42.6 °F 100% 30.24 in 7.0 mi ENE 4.6 mph - 0.02 in Rain Light Rain
5:55 PM 41.9 °F 39.0 °F 41.9 °F 100% 30.24 in 7.0 mi ENE 4.6 mph - 0.03 in Rain Light Rain
6:15 PM 41.5 °F 37.8 °F 41.4 °F 99% 30.25 in 5.0 mi NE 5.8 mph - 0.01 in Rain Light Rain
6:35 PM 41.4 °F 39.4 °F 41.4 °F 100% 30.24 in 4.0 mi NNE 3.5 mph - 0.03 in Rain Rain
6:55 PM 41.0 °F 39.0 °F 41.0 °F 100% 30.24 in 4.0 mi NNE 3.5 mph - 0.05 in Rain Rain
7:15 PM 40.6 °F 36.0 °F 40.6 °F 100% 30.24 in 4.0 mi North 6.9 mph - 0.01 in Rain Rain
7:35 PM 40.5 °F 38.4 °F 40.5 °F 100% 30.24 in 5.0 mi North 3.5 mph - 0.02 in Rain Light Rain
7:55 PM 40.3 °F 35.5 °F 40.3 °F 100% 30.23 in 4.0 mi North 6.9 mph - 0.03 in Rain Rain
8:15 PM 40.1 °F 35.3 °F 40.1 °F 100% 30.22 in 4.0 mi NNE 6.9 mph - 0.01 in Rain Light Rain
8:35 PM 40.1 °F 36.1 °F 40.1 °F 100% 30.23 in 5.0 mi NNE 5.8 mph - 0.02 in Rain Rain
8:55 PM 40.1 °F 34.7 °F 40.1 °F 100% 30.22 in 3.0 mi NNE 8.1 mph - 0.06 in Rain Light Rain
9:15 PM 39.7 °F 36.5 °F 39.7 °F 100% 30.22 in 3.0 mi NNE 4.6 mph - 0.02 in Rain Rain
9:35 PM 39.4 °F 35.2 °F 39.4 °F 100% 30.21 in 5.0 mi NE 5.8 mph - 0.03 in Rain Light Rain
9:55 PM 39.4 °F 35.2 °F 39.2 °F 99% 30.18 in 5.0 mi NE 5.8 mph - 0.03 in Rain Rain
10:15 PM 39.4 °F 33.8 °F 39.2 °F 99% 30.17 in 4.0 mi ENE 8.1 mph - 0.02 in Rain Rain
10:35 PM 39.4 °F 34.5 °F 39.2 °F 99% 30.17 in 5.0 mi NNE 6.9 mph - 0.02 in Rain Rain
10:55 PM 39.2 °F 34.2 °F 38.7 °F 98% 30.16 in 2.5 mi NE 6.9 mph - 0.04 in Rain Rain
11:15 PM 38.8 °F 34.6 °F 38.8 °F 100% 30.17 in 2.5 mi NNE 5.8 mph - 0.02 in Rain Rain
11:35 PM 38.8 °F 35.4 °F 38.7 °F 99% 30.16 in 3.0 mi NNE 4.6 mph - 0.03 in Rain Light Rain
11:55 PM 38.8 °F 36.5 °F 38.8 °F 100% 30.15 in 2.5 mi NE 3.5 mph - 0.04 in   Heavy Drizzle